TimeEST,TemperatureF,Dew PointF,Humidity,Sea Level PressureIn,VisibilityMPH,Wind Direction,Wind SpeedMPH,Gust SpeedMPH,PrecipitationIn,Events,Conditions,WindDirDegrees,DateUTC
12:15 AM,68.0,68.0,100,29.64,3.0,West,20.7,38.0,0.18,Rain,Heavy Rain,260,2013-01-31 05:15:00
12:35 AM,59.0,59.0,100,29.67,10.0,WSW,11.5,32.2,0.01,Rain,Rain,240,2013-01-31 05:35:00
12:55 AM,57.2,57.2,100,29.69,5.0,WSW,13.8,27.6,0.01,Rain,Light Rain,250,2013-01-31 05:55:00
1:15 AM,55.4,55.4,100,29.69,5.0,WSW,13.8,25.3,0.02,Rain,Rain,240,2013-01-31 06:15:00
1:35 AM,53.6,53.6,100,29.69,7.0,WSW,11.5,25.3,0.03,Rain,Light Rain,240,2013-01-31 06:35:00
1:55 AM,53.6,53.6,100,29.69,10.0,WSW,10.4,21.9,0.04,Rain,Light Rain,240,2013-01-31 06:55:00
2:15 AM,51.8,51.8,100,29.70,10.0,SW,9.2,16.1,0.01,Rain,Light Rain,230,2013-01-31 07:15:00
2:35 AM,51.8,48.2,88,29.72,7.0,SW,9.2,19.6,0.01,,Overcast,230,2013-01-31 07:35:00
2:55 AM,51.8,48.2,88,29.72,7.0,WSW,10.4,20.7,0.01,,Overcast,240,2013-01-31 07:55:00
3:15 AM,51.8,46.4,82,29.72,10.0,WSW,10.4,20.7,N/A,,Overcast,240,2013-01-31 08:15:00
3:35 AM,51.8,46.4,82,29.73,7.0,SW,11.5,16.1,N/A,,Overcast,230,2013-01-31 08:35:00
3:55 AM,51.8,46.4,82,29.73,7.0,SW,10.4,17.3,N/A,,Scattered Clouds,230,2013-01-31 08:55:00
4:15 AM,51.8,46.4,82,29.73,10.0,SW,11.5,18.4,N/A,,Scattered Clouds,230,2013-01-31 09:15:00
4:35 AM,51.8,48.2,88,29.74,7.0,SW,10.4,18.4,N/A,,Mostly Cloudy,230,2013-01-31 09:35:00
4:55 AM,51.8,48.2,88,29.75,10.0,SW,9.2,18.4,N/A,,Mostly Cloudy,230,2013-01-31 09:55:00
5:15 AM,51.8,48.2,88,29.76,10.0,WSW,8.1,-,N/A,,Mostly Cloudy,250,2013-01-31 10:15:00
5:35 AM,51.8,41.0,67,29.78,7.0,WSW,15.0,23.0,N/A,,Mostly Cloudy,240,2013-01-31 10:35:00
5:55 AM,50.0,35.6,58,29.80,7.0,WSW,12.7,25.3,N/A,,Scattered Clouds,250,2013-01-31 10:55:00
6:15 AM,48.2,35.6,62,29.80,7.0,WSW,10.4,18.4,N/A,,Clear,250,2013-01-31 11:15:00
6:35 AM,46.4,35.6,66,29.83,7.0,WSW,10.4,-,N/A,,Scattered Clouds,240,2013-01-31 11:35:00
7:15 AM,46.4,32.0,57,29.86,7.0,WSW,10.4,25.3,N/A,,Scattered Clouds,250,2013-01-31 12:15:00
7:35 AM,44.6,32.0,61,29.88,7.0,WSW,10.4,17.3,N/A,,Clear,250,2013-01-31 12:35:00
7:55 AM,44.6,32.0,61,29.90,7.0,WSW,10.4,19.6,N/A,,Clear,250,2013-01-31 12:55:00
8:15 AM,44.6,32.0,61,29.90,7.0,WSW,11.5,25.3,N/A,,Clear,240,2013-01-31 13:15:00
8:35 AM,46.4,32.0,57,29.91,7.0,WSW,9.2,20.7,N/A,,Clear,250,2013-01-31 13:35:00
8:55 AM,46.4,32.0,57,29.93,7.0,West,11.5,19.6,N/A,,Clear,260,2013-01-31 13:55:00
9:15 AM,46.4,32.0,57,29.94,7.0,West,11.5,18.4,N/A,,Clear,260,2013-01-31 14:15:00
9:35 AM,46.4,32.0,57,29.95,7.0,West,8.1,18.4,N/A,,Clear,260,2013-01-31 14:35:00
9:55 AM,48.2,32.0,54,29.96,5.0,West,11.5,16.1,N/A,,Haze,270,2013-01-31 14:55:00
10:15 AM,48.2,32.0,54,29.96,7.0,West,11.5,18.4,N/A,,Clear,260,2013-01-31 15:15:00
10:35 AM,48.2,32.0,54,29.96,7.0,West,9.2,18.4,N/A,,Clear,270,2013-01-31 15:35:00
10:55 AM,48.2,32.0,54,29.96,7.0,West,8.1,20.7,N/A,,Clear,260,2013-01-31 15:55:00
11:15 AM,50.0,32.0,50,29.97,7.0,West,11.5,19.6,N/A,,Clear,270,2013-01-31 16:15:00
11:35 AM,50.0,30.2,47,29.97,7.0,West,8.1,17.3,N/A,,Clear,260,2013-01-31 16:35:00
11:55 AM,51.8,32.0,47,29.96,5.0,WSW,10.4,-,N/A,,Haze,250,2013-01-31 16:55:00
12:15 PM,51.8,30.2,44,29.96,5.0,WSW,11.5,-,N/A,,Haze,240,2013-01-31 17:15:00
12:35 PM,51.8,30.2,44,29.96,7.0,West,10.4,17.3,N/A,,Clear,260,2013-01-31 17:35:00
1:15 PM,53.6,28.4,38,29.94,7.0,West,11.5,21.9,N/A,,Clear,260,2013-01-31 18:15:00
1:35 PM,53.6,28.4,38,29.94,5.0,West,10.4,16.1,N/A,,Haze,270,2013-01-31 18:35:00
1:55 PM,53.6,28.4,38,29.94,7.0,WSW,8.1,18.4,N/A,,Clear,250,2013-01-31 18:55:00
2:15 PM,53.6,26.6,35,29.94,7.0,WSW,8.1,23.0,N/A,,Clear,240,2013-01-31 19:15:00
2:35 PM,53.6,26.6,35,29.94,7.0,West,9.2,25.3,N/A,,Clear,260,2013-01-31 19:35:00
2:55 PM,55.4,26.6,33,29.95,5.0,West,10.4,19.6,N/A,,Haze,260,2013-01-31 19:55:00
3:15 PM,55.4,24.8,31,29.95,7.0,West,10.4,21.9,N/A,,Clear,260,2013-01-31 20:15:00
3:35 PM,53.6,23.0,30,29.96,7.0,West,12.7,27.6,N/A,,Clear,260,2013-01-31 20:35:00
4:15 PM,53.6,23.0,30,29.97,7.0,WSW,6.9,16.1,N/A,,Clear,250,2013-01-31 21:15:00
4:35 PM,53.6,23.0,30,29.98,5.0,West,10.4,18.4,N/A,,Haze,270,2013-01-31 21:35:00
4:55 PM,53.6,23.0,30,29.99,5.0,WSW,10.4,19.6,N/A,,Haze,250,2013-01-31 21:55:00
5:15 PM,51.8,23.0,33,30.01,5.0,WSW,9.2,19.6,N/A,,Haze,250,2013-01-31 22:15:00
5:35 PM,51.8,23.0,33,30.01,7.0,West,5.8,16.1,N/A,,Clear,260,2013-01-31 22:35:00
5:55 PM,50.0,23.0,35,30.03,7.0,West,5.8,-,N/A,,Clear,260,2013-01-31 22:55:00
6:15 PM,50.0,24.8,37,30.04,7.0,Calm,Calm,-,N/A,,Clear,0,2013-01-31 23:15:00
6:35 PM,48.2,24.8,40,30.05,7.0,Calm,Calm,-,N/A,,Clear,0,2013-01-31 23:35:00
6:55 PM,46.4,24.8,43,30.06,10.0,WSW,3.5,-,N/A,,Clear,250,2013-01-31 23:55:00
7:15 PM,44.6,26.6,49,30.07,7.0,Calm,Calm,-,N/A,,Clear,0,2013-02-01 00:15:00
7:35 PM,42.8,30.2,61,30.08,7.0,Calm,Calm,-,N/A,,Clear,0,2013-02-01 00:35:00
7:55 PM,41.0,32.0,70,30.08,7.0,Calm,Calm,-,N/A,,Clear,0,2013-02-01 00:55:00
8:15 PM,39.2,32.0,75,30.08,7.0,Calm,Calm,-,N/A,,Clear,0,2013-02-01 01:15:00
8:35 PM,39.2,32.0,75,30.09,7.0,Calm,Calm,-,N/A,,Clear,0,2013-02-01 01:35:00
8:55 PM,37.4,32.0,81,30.09,7.0,Calm,Calm,-,N/A,,Clear,0,2013-02-01 01:55:00
9:15 PM,37.4,32.0,81,30.10,7.0,SW,3.5,-,N/A,,Clear,220,2013-02-01 02:15:00
9:35 PM,41.0,28.4,61,30.11,7.0,SSW,3.5,-,N/A,,Clear,210,2013-02-01 02:35:00
9:55 PM,39.2,30.2,70,30.12,7.0,SW,4.6,-,N/A,,Clear,220,2013-02-01 02:55:00
10:15 PM,42.8,28.4,57,30.13,7.0,SW,4.6,-,N/A,,Clear,230,2013-02-01 03:15:00
10:35 PM,42.8,28.4,57,30.13,7.0,SW,4.6,-,N/A,,Clear,230,2013-02-01 03:35:00
11:15 PM,42.8,28.4,57,30.13,7.0,SW,4.6,-,N/A,,Clear,220,2013-02-01 04:15:00
11:35 PM,42.8,28.4,57,30.13,7.0,SW,4.6,-,N/A,,Clear,230,2013-02-01 04:35:00